Weather History for Marshfield, MA

Change the Weather History Date:

Thursday, February 21, 2013

  Actual Average (KPYM) Record (KPYM)
Temperature  
Mean Temperature 30 °F -  
Max Temperature 33 °F 42 °F 63 °F (1954)
Min Temperature 28 °F 21 °F -1 °F (1950)
Degree Days  
Heating Degree Days 34    
Moisture  
Dew Point 15 °F    
Average Humidity 53    
Maximum Humidity 64    
Minimum Humidity 41    
Precipitation  
Precipitation 0.00 in - - ()
Sea Level Pressure  
Sea Level Pressure 29.87 in    
Wind  
Wind Speed 10 mph (West)    
Max Wind Speed 15 mph    
Max Gust Speed 26 mph    
Visibility 10 miles    
Events      
Averages and records for this station are not official NWS values.
T = Trace of Precipitation, MM = Missing Value Source: NWS Daily Summary

Daily Weather History Graph

Daily Weather History Graph

Search for Another Location

Airport:

Trip Planner

Search our weather history database for the weather conditions in past years. The results will help you decide how hot, cold, wet, or windy it might be!

Date:

Astronomy

Feb. 21, 2013 Rise Set
Actual Time 6:29 AM EST 5:23 PM EST
Civil Twilight 6:01 AM EST 5:51 PM EST
Nautical Twilight 5:29 AM EST 6:24 PM EST
Astronomical Twilight 4:56 AM EST 6:56 PM EST
Moon 1:32 PM EST (2/21) 3:35 AM EST (2/21)
Length of Visible Light 11h 50m
Length of Day
10h 53m
Waxing Gibbous, 83% of the Moon is Illuminated
Feb 21
Waxing Gibbous
Feb 25
Full
Mar 4
Last Quarter
Mar 11
New
Mar 19
First Quarter

Hourly Weather History & Observations

Time (EST) Temp. Windchill Dew Point Humidity Pressure Visibility Wind Dir Wind Speed Gust Speed Precip Events Conditions
12:15 AM 30.2 °F 23.4 °F 14.0 °F 51% 29.79 in 10.0 mi West 6.9 mph - N/A   Clear
12:35 AM 28.4 °F 18.0 °F 14.0 °F 55% 29.79 in 10.0 mi WSW 12.7 mph 16.1 mph N/A   Clear
12:55 AM 28.4 °F 19.1 °F 15.8 °F 59% 29.80 in 10.0 mi WSW 10.4 mph 16.1 mph N/A   Clear
1:15 AM 28.4 °F 19.7 °F 15.8 °F 59% 29.81 in 10.0 mi WSW 9.2 mph - N/A   Clear
1:35 AM 28.4 °F 20.4 °F 15.8 °F 59% 29.81 in 10.0 mi WSW 8.1 mph - N/A   Clear
1:55 AM 28.4 °F 19.7 °F 15.8 °F 59% 29.81 in 10.0 mi WSW 9.2 mph - N/A   Partly Cloudy
2:15 AM 28.4 °F 23.3 °F 15.8 °F 59% 29.80 in 10.0 mi WSW 4.6 mph - N/A   Partly Cloudy
2:35 AM 28.4 °F 20.4 °F 17.6 °F 64% 29.80 in 10.0 mi SW 8.1 mph - N/A   Clear
2:55 AM 28.4 °F 22.2 °F 15.8 °F 59% 29.80 in 10.0 mi WSW 5.8 mph - N/A   Clear
3:15 AM 28.4 °F 22.2 °F 17.6 °F 64% 29.80 in 10.0 mi WSW 5.8 mph - N/A   Clear
3:35 AM 28.4 °F 22.2 °F 17.6 °F 64% 29.80 in 10.0 mi WSW 5.8 mph - N/A   Scattered Clouds
3:55 AM 28.4 °F 21.2 °F 17.6 °F 64% 29.80 in 10.0 mi WSW 6.9 mph - N/A   Mostly Cloudy
4:15 AM 28.4 °F 22.2 °F 17.6 °F 64% 29.81 in 10.0 mi WSW 5.8 mph - N/A   Partly Cloudy
4:35 AM 28.4 °F 23.3 °F 17.6 °F 64% 29.82 in 10.0 mi WSW 4.6 mph - N/A   Clear
4:55 AM 28.4 °F 21.2 °F 17.6 °F 64% 29.81 in 10.0 mi WSW 6.9 mph - N/A   Clear
5:15 AM 28.4 °F 21.2 °F 17.6 °F 64% 29.81 in 10.0 mi WSW 6.9 mph - N/A   Clear
5:35 AM 28.4 °F 21.2 °F 15.8 °F 59% 29.81 in 10.0 mi WSW 6.9 mph - N/A   Clear
5:55 AM 28.4 °F 19.1 °F 15.8 °F 59% 29.81 in 10.0 mi WSW 10.4 mph 16.1 mph N/A   Clear
6:15 AM 28.4 °F 17.0 °F 14.0 °F 55% 29.81 in 10.0 mi WSW 15.0 mph 23.0 mph N/A   Clear
6:35 AM 28.4 °F 20.4 °F 14.0 °F 55% 29.81 in 10.0 mi WSW 8.1 mph 26.5 mph N/A   Clear
6:55 AM 28.4 °F 18.5 °F 14.0 °F 55% 29.82 in 10.0 mi WSW 11.5 mph 19.6 mph N/A   Scattered Clouds
7:15 AM 28.4 °F 19.1 °F 14.0 °F 55% 29.82 in 10.0 mi West 10.4 mph 26.5 mph N/A   Mostly Cloudy
7:35 AM 28.4 °F 18.0 °F 14.0 °F 55% 29.83 in 10.0 mi West 12.7 mph 24.2 mph N/A   Mostly Cloudy
7:55 AM 28.4 °F 18.0 °F 14.0 °F 55% 29.83 in 10.0 mi West 12.7 mph 20.7 mph N/A   Mostly Cloudy
8:15 AM 28.4 °F 18.5 °F 14.0 °F 55% 29.83 in 10.0 mi West 11.5 mph 20.7 mph N/A   Scattered Clouds
8:35 AM 28.4 °F 17.5 °F 14.0 °F 55% 29.82 in 10.0 mi West 13.8 mph 20.7 mph N/A   Partly Cloudy
8:55 AM 28.4 °F 19.7 °F 14.0 °F 55% 29.81 in 10.0 mi WSW 9.2 mph 18.4 mph N/A   Clear
9:15 AM 30.2 °F 21.9 °F 14.0 °F 51% 29.81 in 10.0 mi West 9.2 mph 20.7 mph N/A   Clear
9:35 AM 30.2 °F 19.3 °F 12.2 °F 47% 29.81 in 10.0 mi West 15.0 mph 20.7 mph N/A   Clear
9:55 AM 32.0 °F 21.6 °F 12.2 °F 44% 29.82 in 10.0 mi West 15.0 mph 20.7 mph N/A   Clear
10:15 AM 32.0 °F 21.6 °F 12.2 °F 44% 29.81 in 10.0 mi West 15.0 mph 20.7 mph N/A   Clear
10:35 AM 32.0 °F 23.0 °F 12.2 °F 44% 29.82 in 10.0 mi WSW 11.5 mph 21.9 mph N/A   Clear
10:55 AM 32.0 °F 22.5 °F 12.2 °F 44% 29.82 in 10.0 mi West 12.7 mph 20.7 mph N/A   Clear
11:15 AM 32.0 °F 22.1 °F 12.2 °F 44% 29.81 in 10.0 mi West 13.8 mph 21.9 mph N/A   Partly Cloudy
11:35 AM 32.0 °F 23.0 °F 12.2 °F 44% 29.81 in 10.0 mi WNW 11.5 mph 21.9 mph N/A   Partly Cloudy
11:55 AM 32.0 °F 23.6 °F 12.2 °F 44% 29.81 in 10.0 mi West 10.4 mph 16.1 mph N/A   Partly Cloudy
12:15 PM 32.0 °F 23.6 °F 12.2 °F 44% 29.81 in 10.0 mi West 10.4 mph 21.9 mph N/A   Partly Cloudy
12:35 PM 33.8 °F 24.8 °F 12.2 °F 41% 29.80 in 10.0 mi WNW 12.7 mph 18.4 mph N/A   Partly Cloudy
12:55 PM 33.8 °F 24.3 °F 12.2 °F 41% 29.80 in 10.0 mi West 13.8 mph 21.9 mph N/A   Clear
1:15 PM 33.8 °F 24.8 °F 12.2 °F 41% 29.80 in 10.0 mi West 12.7 mph 21.9 mph N/A   Partly Cloudy
1:35 PM 33.8 °F 25.3 °F 12.2 °F 41% 29.80 in 10.0 mi WNW 11.5 mph 24.2 mph N/A   Clear
1:55 PM 33.8 °F 23.9 °F 12.2 °F 41% 29.81 in 10.0 mi West 15.0 mph 24.2 mph N/A   Clear
2:15 PM 33.8 °F 24.3 °F 14.0 °F 44% 29.82 in 10.0 mi WNW 13.8 mph 19.6 mph N/A   Clear
2:35 PM 33.8 °F 24.3 °F 14.0 °F 44% 29.82 in 10.0 mi WNW 13.8 mph 20.7 mph N/A   Clear
2:55 PM 33.8 °F 25.8 °F 14.0 °F 44% 29.83 in 10.0 mi WNW 10.4 mph 18.4 mph N/A   Clear
3:15 PM 33.8 °F 24.3 °F 14.0 °F 44% 29.84 in 10.0 mi NW 13.8 mph 20.7 mph N/A   Clear
3:35 PM 33.8 °F 26.4 °F 14.0 °F 44% 29.85 in 10.0 mi WNW 9.2 mph 19.6 mph N/A   Clear
3:55 PM 33.8 °F 24.8 °F 14.0 °F 44% 29.86 in 10.0 mi NW 12.7 mph 19.6 mph N/A   Clear
4:15 PM 32.0 °F 23.0 °F 14.0 °F 48% 29.87 in 10.0 mi NW 11.5 mph 20.7 mph N/A   Clear
4:55 PM 32.0 °F 23.6 °F 15.8 °F 51% 29.89 in 10.0 mi NW 10.4 mph 17.3 mph N/A   Overcast
5:15 PM 32.0 °F 24.8 °F 15.8 °F 51% 29.91 in 10.0 mi WNW 8.1 mph 20.7 mph N/A   Overcast
5:35 PM 32.0 °F 22.5 °F 14.0 °F 48% 29.92 in 10.0 mi NW 12.7 mph 20.7 mph N/A   Overcast
5:55 PM 32.0 °F 22.1 °F 14.0 °F 48% 29.94 in 10.0 mi WNW 13.8 mph 24.2 mph N/A   Mostly Cloudy
6:15 PM 32.0 °F 22.1 °F 14.0 °F 48% 29.96 in 10.0 mi WNW 13.8 mph 24.2 mph N/A   Mostly Cloudy
6:35 PM 32.0 °F 22.5 °F 15.8 °F 51% 29.97 in 10.0 mi WNW 12.7 mph 20.7 mph N/A   Overcast
6:55 PM 32.0 °F 23.0 °F 14.0 °F 48% 29.99 in 10.0 mi NW 11.5 mph 18.4 mph N/A   Overcast
7:15 PM 30.2 °F 21.3 °F 15.8 °F 55% 30.00 in 10.0 mi WNW 10.4 mph 18.4 mph N/A   Scattered Clouds
7:35 PM 30.2 °F 20.8 °F 15.8 °F 55% 30.01 in 10.0 mi WNW 11.5 mph 21.9 mph N/A   Partly Cloudy
7:55 PM 30.2 °F 20.8 °F 15.8 °F 55% 30.02 in 10.0 mi WNW 11.5 mph 21.9 mph N/A   Clear
8:15 PM 30.2 °F 20.2 °F 17.6 °F 60% 30.04 in 10.0 mi WNW 12.7 mph 21.9 mph N/A   Clear
8:55 PM 30.2 °F 21.3 °F 17.6 °F 60% 30.06 in 10.0 mi WNW 10.4 mph 19.6 mph N/A   Clear
9:15 PM 30.2 °F 21.9 °F 19.4 °F 64% 30.07 in 10.0 mi WNW 9.2 mph 19.6 mph N/A   Clear
9:35 PM 32.0 °F 23.6 °F 19.4 °F 60% 30.08 in 10.0 mi NW 10.4 mph 19.6 mph N/A   Clear
10:15 PM 32.0 °F 22.5 °F 19.4 °F 60% 30.09 in 10.0 mi NW 12.7 mph 19.6 mph N/A   Clear
10:55 PM 32.0 °F 23.6 °F 21.2 °F 64% 30.11 in 10.0 mi NW 10.4 mph 20.7 mph N/A   Mostly Cloudy
11:15 PM 32.0 °F 22.1 °F 21.2 °F 64% 30.13 in 10.0 mi WNW 13.8 mph 20.7 mph N/A   Overcast
11:35 PM 32.0 °F 22.5 °F 21.2 °F 64% 30.14 in 10.0 mi WNW 12.7 mph 19.6 mph N/A   Overcast
11:55 PM 32.0 °F 23.6 °F 21.2 °F 64% 30.15 in 10.0 mi WNW 10.4 mph 17.3 mph N/A   Mostly Cloudy